Mosinee, WI

12:23 PM CST on December 12, 2017 (GMT -0600)
Central Wisconsin

Weather History for KCWA - September, 2013

Change the Weather History Date:

Saturday, September 7, 2013

  Actual Average Record
Temperature  
Mean Temperature 76 °F -  
Max Temperature 87 °F 71 °F 89 °F (2003)
Min Temperature 64 °F 50 °F 42 °F (2011)
Cooling Degree Days 12    
Growing Degree Days 26 (Base 50)    
Moisture  
Dew Point 65 °F    
Average Humidity 80    
Maximum Humidity 100    
Minimum Humidity 48    
Precipitation  
Precipitation 0.00 in - - ()
Sea Level Pressure  
Sea Level Pressure 29.97 in    
Wind  
Wind Speed 6 mph (SSW)    
Max Wind Speed 18 mph    
Max Gust Speed 23 mph    
Visibility 9 miles    
Events Rain    
Averages and records for this station are not official NWS values.
T = Trace of Precipitation, MM = Missing Value Source: NWS Daily Summary

Daily Weather History Graph

Daily Weather History Graph

Search for Another Location

Airport or City:

Trip Planner

Search our weather history database for the weather conditions in past years. The results will help you decide how hot, cold, wet, or windy it might be!

Date:

Astronomy

Sep. 07, 2013 Rise Set
Actual Time 6:28 AM CDT 7:23 PM CDT
Civil Twilight 5:58 AM CDT 7:53 PM CDT
Nautical Twilight 5:23 AM CDT 8:29 PM CDT
Astronomical Twilight 4:45 AM CDT 9:06 PM CDT
Moon 8:50 AM CDT (9/7) 8:13 PM CDT (9/7)
Length of Visible Light 13h 55m
Length of Day
12h 55m
Waxing Crescent, 5% of the Moon is Illuminated
Sep 7
Waxing Crescent
Sep 12
First Quarter
Sep 19
Full
Sep 26
Last Quarter
Oct 4
New

Hourly Weather History & Observations

Time (CDT) Temp. Heat Index Dew Point Humidity Pressure Visibility Wind Dir Wind Speed Gust Speed Precip Events Conditions
12:15 AM 69.8 °F - 64.4 °F 83% 29.98 in 7.0 mi SSW 3.5 mph - N/A   Mostly Cloudy
12:35 AM 69.8 °F - 64.4 °F 83% 29.98 in 10.0 mi SSW 5.8 mph - N/A   Mostly Cloudy
12:55 AM 69.8 °F - 64.4 °F 83% 29.98 in 10.0 mi SSW 6.9 mph - N/A   Scattered Clouds
1:15 AM 69.8 °F - 64.4 °F 83% 29.97 in 7.0 mi SSW 5.8 mph - N/A   Scattered Clouds
1:35 AM 68.0 °F - 62.6 °F 83% 29.97 in 7.0 mi SSW 5.8 mph - N/A   Clear
1:55 AM 68.0 °F - 64.4 °F 88% 29.96 in 10.0 mi SSW 5.8 mph - N/A   Clear
2:15 AM 68.0 °F - 64.4 °F 88% 29.96 in 10.0 mi SSW 5.8 mph - N/A   Scattered Clouds
2:35 AM 68.0 °F - 62.6 °F 83% 29.96 in 7.0 mi South 5.8 mph - N/A   Scattered Clouds
2:55 AM 68.0 °F - 62.6 °F 83% 29.95 in 7.0 mi SSW 5.8 mph - N/A   Scattered Clouds
3:15 AM 68.0 °F - 62.6 °F 83% 29.95 in 10.0 mi South 5.8 mph - N/A   Mostly Cloudy
3:35 AM 68.0 °F - 62.6 °F 83% 29.94 in 10.0 mi South 5.8 mph - N/A   Mostly Cloudy
3:55 AM 68.0 °F - 62.6 °F 83% 29.94 in 10.0 mi SSW 4.6 mph - N/A Rain Light Rain
4:15 AM 68.0 °F - 64.4 °F 88% 29.93 in 10.0 mi South 3.5 mph - N/A Rain Light Rain
4:35 AM 66.2 °F - 64.4 °F 94% 29.93 in 7.0 mi South 5.8 mph - N/A   Mostly Cloudy
4:55 AM 66.2 °F - 62.6 °F 88% 29.92 in 7.0 mi South 4.6 mph - N/A   Scattered Clouds
5:15 AM 66.2 °F - 64.4 °F 94% 29.92 in 10.0 mi South 4.6 mph - N/A   Scattered Clouds
5:50 AM 66.2 °F - 64.4 °F 94% 29.92 in 10.0 mi SSW 5.8 mph - N/A   Mostly Cloudy
6:45 AM 66.2 °F - 64.4 °F 94% 29.92 in 10.0 mi South 3.5 mph - N/A   Mostly Cloudy
8:45 AM 71.6 °F - 64.4 °F 78% 29.92 in 10.0 mi West 3.5 mph - N/A   Clear
8:55 AM 69.8 °F - 64.4 °F 83% 29.93 in 10.0 mi Calm Calm - N/A   Scattered Clouds
9:45 AM 75.2 °F - 64.4 °F 69% 29.93 in 10.0 mi West 6.9 mph - N/A   Clear
10:55 AM 78.8 °F - 66.2 °F 65% 29.93 in 10.0 mi Calm Calm - N/A   Clear
11:45 AM 80.6 °F 83.2 °F 68.0 °F 65% 29.93 in 10.0 mi WNW 6.9 mph - N/A   Clear
12:45 PM 80.6 °F 83.9 °F 69.8 °F 70% 29.93 in 10.0 mi North 6.9 mph - N/A   Clear
2:50 PM 84.2 °F 86.6 °F 66.2 °F 55% 29.92 in 10.0 mi North 3.5 mph - N/A   Clear
3:50 PM 87.8 °F 90.4 °F 66.2 °F 49% 29.92 in 10.0 mi NNE 5.8 mph - N/A   Scattered Clouds
4:50 PM 86.0 °F 87.3 °F 64.4 °F 48% 29.93 in 10.0 mi NNW 8.1 mph - N/A   Clear
5:50 PM 84.2 °F 86.6 °F 66.2 °F 55% 29.95 in 10.0 mi NNW 8.1 mph - N/A   Clear
6:53 PM 80.6 °F 83.2 °F 68.0 °F 65% 29.97 in 10.0 mi North 8.1 mph - N/A   Scattered Clouds
7:45 PM 78.8 °F - 69.8 °F 74% 30.00 in 10.0 mi NE 13.8 mph 17.3 mph N/A   Mostly Cloudy
8:53 PM 73.4 °F - 73.4 °F 100% 30.04 in 10.0 mi ENE 10.4 mph - N/A   Overcast
9:45 PM 71.6 °F - 69.8 °F 94% 30.05 in 10.0 mi East 5.8 mph - N/A   Overcast
10:15 PM 69.8 °F - 64.4 °F 83% 30.05 in 10.0 mi NE 12.7 mph 19.6 mph N/A   Overcast
10:35 PM 69.8 °F - 62.6 °F 78% 30.06 in 7.0 mi NNE 12.7 mph 16.1 mph N/A   Scattered Clouds
10:55 PM 68.0 °F - 62.6 °F 83% 30.06 in 10.0 mi NE 11.5 mph - N/A   Mostly Cloudy
11:15 PM 68.0 °F - 62.6 °F 83% 30.07 in 10.0 mi NNE 17.3 mph - N/A   Overcast
11:35 PM 66.2 °F - 60.8 °F 83% 30.07 in 10.0 mi NNE 18.4 mph 23.0 mph N/A   Overcast
11:55 PM 64.4 °F - 59.0 °F 83% 30.08 in 10.0 mi NE 12.7 mph - N/A   Overcast